Time,TemperatureF,DewpointF,PressureIn,WindDirection,WindDirectionDegrees,WindSpeedMPH,WindSpeedGustMPH,Humidity,HourlyPrecipIn,Conditions,Clouds,dailyrainin,SolarRadiationWatts/m^2,SoftwareType,DateUTC
2013-08-27 00:08:00,65.0,62.0,-100.00,NNE,27,2.0,3.0,90,0.00,,,0.00,0.000000,,2013-08-27 04:08:00,
2013-08-27 00:47:00,64.0,62.0,-100.00,NW,324,2.0,4.0,92,0.00,,,0.00,0.000000,,2013-08-27 04:47:00,
2013-08-27 00:54:00,64.0,62.0,-100.00,NW,324,2.0,4.0,92,0.00,,,0.00,0.000000,,2013-08-27 04:54:00,
2013-08-27 01:05:00,64.0,62.0,-100.00,NW,324,2.0,4.0,92,0.00,,,0.00,0.000000,,2013-08-27 05:05:00,
2013-08-27 01:13:00,64.0,62.0,-100.00,NW,324,2.0,4.0,92,0.00,,,0.00,0.000000,,2013-08-27 05:13:00,
2013-08-27 01:43:00,63.0,61.0,-100.00,NNE,16,2.0,4.0,94,0.00,,,0.00,0.000000,,2013-08-27 05:43:00,
2013-08-27 01:52:00,63.0,61.0,-100.00,NNE,16,2.0,4.0,94,0.00,,,0.00,0.000000,,2013-08-27 05:52:00,
2013-08-27 02:02:00,63.0,61.0,-100.00,NNE,16,2.0,4.0,94,0.00,,,0.00,0.000000,,2013-08-27 06:02:00,
2013-08-27 02:12:00,63.0,61.0,-100.00,NNE,16,2.0,4.0,94,0.00,,,0.00,0.000000,,2013-08-27 06:12:00,
2013-08-27 02:42:00,63.0,62.0,-100.00,North,353,2.0,4.0,95,0.00,,,0.00,0.000000,,2013-08-27 06:42:00,
2013-08-27 02:52:00,63.0,62.0,-100.00,North,353,2.0,4.0,95,0.00,,,0.00,0.000000,,2013-08-27 06:52:00,
2013-08-27 03:02:00,63.0,62.0,-100.00,North,353,2.0,4.0,95,0.00,,,0.00,0.000000,,2013-08-27 07:02:00,
2013-08-27 03:12:00,63.0,62.0,-100.00,North,353,2.0,4.0,95,0.00,,,0.00,0.000000,,2013-08-27 07:12:00,
2013-08-27 03:42:00,63.0,62.0,-100.00,NNE,19,2.0,5.0,95,0.00,,,0.00,0.000000,,2013-08-27 07:42:00,
2013-08-27 03:52:00,63.0,62.0,-100.00,NNE,19,2.0,5.0,95,0.00,,,0.00,0.000000,,2013-08-27 07:52:00,
2013-08-27 04:02:00,63.0,62.0,-100.00,NNE,19,2.0,5.0,95,0.00,,,0.00,0.000000,,2013-08-27 08:02:00,
2013-08-27 04:12:00,63.0,62.0,-100.00,NNE,19,2.0,5.0,95,0.00,,,0.00,0.000000,,2013-08-27 08:12:00,
2013-08-27 04:42:00,63.0,61.0,-100.00,NW,314,2.0,5.0,94,0.00,,,0.00,0.000000,,2013-08-27 08:42:00,
2013-08-27 04:52:00,63.0,61.0,-100.00,NW,314,2.0,5.0,94,0.00,,,0.00,0.000000,,2013-08-27 08:52:00,
2013-08-27 05:01:00,63.0,61.0,-100.00,NW,314,2.0,5.0,94,0.00,,,0.00,0.000000,,2013-08-27 09:01:00,
2013-08-27 05:12:00,63.0,61.0,-100.00,NW,314,2.0,5.0,94,0.00,,,0.00,0.000000,,2013-08-27 09:12:00,
2013-08-27 05:43:00,63.0,62.0,-100.00,SW,219,2.0,5.0,95,0.00,,,0.00,0.000000,,2013-08-27 09:43:00,
2013-08-27 05:54:00,63.0,62.0,-100.00,SW,219,2.0,5.0,95,0.00,,,0.00,0.000000,,2013-08-27 09:54:00,
2013-08-27 06:05:00,63.0,62.0,-100.00,SW,219,2.0,5.0,95,0.00,,,0.00,0.000000,,2013-08-27 10:05:00,
2013-08-27 06:14:00,63.0,62.0,-100.00,SW,219,2.0,5.0,95,0.00,,,0.00,0.000000,,2013-08-27 10:14:00,
2013-08-27 06:43:00,63.0,62.0,-100.00,ENE,58,2.0,7.0,95,0.00,,,0.00,0.000000,,2013-08-27 10:43:00,
2013-08-27 06:53:00,63.0,62.0,-100.00,ENE,58,2.0,7.0,95,0.00,,,0.00,0.000000,,2013-08-27 10:53:00,
2013-08-27 07:03:00,63.0,62.0,-100.00,ENE,58,2.0,7.0,95,0.00,,,0.00,0.000000,,2013-08-27 11:03:00,
2013-08-27 07:12:00,63.0,62.0,-100.00,ENE,58,2.0,7.0,95,0.00,,,0.00,0.000000,,2013-08-27 11:12:00,
2013-08-27 07:42:00,64.0,63.0,-100.00,NNE,31,3.0,5.0,96,0.00,,,0.00,4.000000,,2013-08-27 11:42:00,
2013-08-27 07:52:00,64.0,63.0,-100.00,NNE,31,3.0,5.0,96,0.00,,,0.00,4.000000,,2013-08-27 11:52:00,
2013-08-27 08:02:00,64.0,63.0,-100.00,NNE,31,3.0,5.0,96,0.00,,,0.00,4.000000,,2013-08-27 12:02:00,
2013-08-27 08:12:00,64.0,63.0,-100.00,NNE,31,3.0,5.0,96,0.00,,,0.00,4.000000,,2013-08-27 12:12:00,
2013-08-27 08:42:00,65.0,64.0,-100.00,North,353,2.0,5.0,95,0.00,,,0.00,41.000000,,2013-08-27 12:42:00,
2013-08-27 08:52:00,65.0,64.0,-100.00,North,353,2.0,5.0,95,0.00,,,0.00,41.000000,,2013-08-27 12:52:00,
2013-08-27 09:01:00,65.0,64.0,-100.00,North,353,2.0,5.0,95,0.00,,,0.00,41.000000,,2013-08-27 13:01:00,
2013-08-27 09:12:00,65.0,64.0,-100.00,North,353,2.0,5.0,95,0.00,,,0.00,41.000000,,2013-08-27 13:12:00,
2013-08-27 09:42:00,67.0,65.0,-100.00,NW,311,2.0,7.0,93,0.00,,,0.00,77.000000,,2013-08-27 13:42:00,
2013-08-27 09:52:00,67.0,65.0,-100.00,NW,311,2.0,7.0,93,0.00,,,0.00,77.000000,,2013-08-27 13:52:00,
2013-08-27 10:02:00,67.0,65.0,-100.00,NW,311,2.0,7.0,93,0.00,,,0.00,77.000000,,2013-08-27 14:02:00,
2013-08-27 10:11:00,67.0,65.0,-100.00,NW,311,2.0,7.0,93,0.00,,,0.00,77.000000,,2013-08-27 14:11:00,
2013-08-27 10:42:00,71.0,68.0,-100.00,WNW,300,3.0,7.0,89,0.00,,,-99.99,189.000000,,2013-08-27 14:42:00,
2013-08-27 10:53:00,71.0,68.0,-100.00,WNW,300,3.0,7.0,89,0.00,,,-99.99,189.000000,,2013-08-27 14:53:00,
2013-08-27 11:01:00,71.0,68.0,-100.00,WNW,300,3.0,7.0,89,0.00,,,-99.99,189.000000,,2013-08-27 15:01:00,
2013-08-27 11:11:00,71.0,68.0,-100.00,WNW,300,3.0,7.0,89,0.00,,,-99.99,189.000000,,2013-08-27 15:11:00,
2013-08-27 11:17:00,74.0,68.0,-100.00,NNW,329,3.0,7.0,82,0.00,,,0.00,330.000000,,2013-08-27 15:17:00,
2013-08-27 11:45:00,74.0,68.0,-100.00,NNW,329,3.0,7.0,82,0.00,,,0.00,330.000000,,2013-08-27 15:45:00,
2013-08-27 11:58:00,74.0,68.0,-100.00,NNW,329,3.0,7.0,82,0.00,,,0.00,330.000000,,2013-08-27 15:58:00,
2013-08-27 12:09:00,74.0,68.0,-100.00,NNW,329,3.0,7.0,82,0.00,,,0.00,330.000000,,2013-08-27 16:09:00,
2013-08-27 12:46:00,74.0,65.0,-100.00,NNW,340,4.0,8.0,74,0.00,,,0.00,373.000000,,2013-08-27 16:46:00,
2013-08-27 12:55:00,74.0,65.0,-100.00,NNW,340,4.0,8.0,74,0.00,,,0.00,373.000000,,2013-08-27 16:55:00,
2013-08-27 13:05:00,74.0,65.0,-100.00,NNW,340,4.0,8.0,74,0.00,,,0.00,373.000000,,2013-08-27 17:05:00,
2013-08-27 13:13:00,74.0,65.0,-100.00,NNW,340,4.0,8.0,74,0.00,,,0.00,373.000000,,2013-08-27 17:13:00,
2013-08-27 14:12:00,77.0,66.0,-100.00,WNW,298,5.0,11.0,68,0.00,,,0.00,675.000000,,2013-08-27 18:12:00,
2013-08-27 14:42:00,78.0,69.0,-100.00,NW,307,4.0,9.0,74,0.00,,,0.00,303.000000,,2013-08-27 18:42:00,
2013-08-27 14:53:00,78.0,69.0,-100.00,NW,307,4.0,9.0,74,0.00,,,0.00,303.000000,,2013-08-27 18:53:00,
2013-08-27 15:01:00,78.0,69.0,-100.00,NW,307,4.0,9.0,74,0.00,,,0.00,303.000000,,2013-08-27 19:01:00,
2013-08-27 15:12:00,78.0,69.0,-100.00,NW,307,4.0,9.0,74,0.00,,,0.00,303.000000,,2013-08-27 19:12:00,
2013-08-27 15:42:00,78.0,68.0,-100.00,NNW,340,3.0,10.0,71,0.00,,,0.00,377.000000,,2013-08-27 19:42:00,
2013-08-27 15:52:00,78.0,68.0,-100.00,NNW,340,3.0,10.0,71,0.00,,,0.00,377.000000,,2013-08-27 19:52:00,
2013-08-27 16:02:00,78.0,68.0,-100.00,NNW,340,3.0,10.0,71,0.00,,,0.00,377.000000,,2013-08-27 20:02:00,
2013-08-27 16:12:00,78.0,68.0,-100.00,NNW,340,3.0,10.0,71,0.00,,,0.00,377.000000,,2013-08-27 20:12:00,